sat.trackr.live / text

‹ back to catalog

STARLINK-5656

NORAD 55451 · 2023-015C

PAYLOAD ACTIVE UNKNOWN

§ Identity

Operator
Country
US
Launch date
2023-02-02
Launch site
AFETR
Launch vehicle
Mass (kg)
RCS (m²)

Purposes: comms

External: N2YO · Heavens-Above · Gunter

§ Orbital elements

Epoch: 2026-05-25T00:48:21.705120Z

Period
94.27 min
Inclination
43.0040°
Eccentricity
0.0001864
Mean motion
15.27589780 rev/d
Perigee alt
481.7 km
Apogee alt
484.3 km
Semi-major
6,861.2 km
B*
8.7404e-5
RAAN
257.9392°
Arg perigee
285.8720°
Mean anomaly
74.1926°
Rev number
18,239

§ Raw data

STARLINK-56561 55451U 23015C   26145.03358455  .00002144  00000+0  87404-4 0  99992 55451  43.0040 257.9392 0001864 285.8720  74.1926 15.27589780182395

JSON: /api/v1/satellites/55451 · /tle

For live sub-satellite position, see the globe view (requires WebGL).

§ Visibility from observer

Set your observer location to see the next 7 days of passes ≥ 10°. The values pass through the URL so the page stays shareable.

No JS? Fill the form by hand. The geolocation button needs JavaScript.